TimeCST,TemperatureF,Dew PointF,Humidity,Sea Level PressureIn,VisibilityMPH,Wind Direction,Wind SpeedMPH,Gust SpeedMPH,PrecipitationIn,Events,Conditions,WindDirDegrees,DateUTC
12:15 AM,5.5,2.5,87,29.96,10.0,SW,3.5,-,N/A,,Clear,220,2013-02-23 06:15:00
12:35 AM,1.9,-1.3,86,29.95,10.0,SSW,3.5,-,N/A,,Clear,200,2013-02-23 06:35:00
12:55 AM,2.7,0.1,89,29.95,7.0,SW,3.5,-,N/A,,Clear,220,2013-02-23 06:55:00
1:15 AM,2.8,0.3,89,29.94,7.0,Calm,Calm,-,N/A,,Clear,0,2013-02-23 07:15:00
1:35 AM,3.9,1.6,90,29.93,7.0,Calm,Calm,-,N/A,,Clear,0,2013-02-23 07:35:00
1:55 AM,-0.4,-4.2,84,29.93,7.0,Calm,Calm,-,N/A,,Clear,0,2013-02-23 07:55:00
2:15 AM,1.2,-2.0,86,29.93,7.0,Calm,Calm,-,N/A,,Clear,0,2013-02-23 08:15:00
2:35 AM,-0.4,-4.2,84,29.93,5.0,Calm,Calm,-,N/A,,Clear,0,2013-02-23 08:35:00
2:55 AM,0.3,-3.6,83,29.92,7.0,Calm,Calm,-,N/A,,Clear,0,2013-02-23 08:55:00
3:15 AM,-2.2,-6.5,82,29.91,7.0,Calm,Calm,-,N/A,,Clear,0,2013-02-23 09:15:00
3:35 AM,0.9,-2.4,86,29.91,7.0,Calm,Calm,-,N/A,,Clear,0,2013-02-23 09:35:00
3:55 AM,-2.9,-7.1,82,29.90,4.0,Calm,Calm,-,N/A,,Clear,0,2013-02-23 09:55:00
4:15 AM,-2.6,-6.3,84,29.89,5.0,Calm,Calm,-,N/A,,Clear,0,2013-02-23 10:15:00
4:35 AM,-4.5,-9.2,80,29.89,10.0,Calm,Calm,-,N/A,,Clear,0,2013-02-23 10:35:00
4:55 AM,-5.1,-9.2,82,29.89,7.0,Calm,Calm,-,N/A,,Clear,0,2013-02-23 10:55:00
5:15 AM,-6.5,-11.0,81,29.88,10.0,Calm,Calm,-,N/A,,Clear,0,2013-02-23 11:15:00
5:35 AM,-6.2,-10.8,80,29.88,10.0,Calm,Calm,-,N/A,,Clear,0,2013-02-23 11:35:00
5:55 AM,-6.5,-11.2,80,29.88,7.0,Calm,Calm,-,N/A,,Clear,0,2013-02-23 11:55:00
6:15 AM,-6.2,-10.5,82,29.88,7.0,Calm,Calm,-,N/A,,Clear,0,2013-02-23 12:15:00
6:35 AM,-6.3,-10.5,82,29.88,10.0,South,3.5,-,N/A,,Clear,180,2013-02-23 12:35:00
6:55 AM,-1.8,-5.1,86,29.87,7.0,Calm,Calm,-,N/A,,Clear,0,2013-02-23 12:55:00
7:15 AM,-6.3,-11.0,80,29.86,10.0,Calm,Calm,-,N/A,,Clear,0,2013-02-23 13:15:00
7:35 AM,-4.7,-9.0,82,29.86,10.0,Calm,Calm,-,N/A,,Clear,0,2013-02-23 13:35:00
7:55 AM,-4.4,-8.7,82,29.86,10.0,Calm,Calm,-,N/A,,Clear,0,2013-02-23 13:55:00
8:15 AM,-2.7,-6.7,83,29.86,10.0,Calm,Calm,-,N/A,,Clear,0,2013-02-23 14:15:00
8:35 AM,-1.8,-5.6,84,29.85,10.0,Calm,Calm,-,N/A,,Clear,0,2013-02-23 14:35:00
8:55 AM,-1.3,-5.4,83,29.85,10.0,Calm,Calm,-,N/A,,Clear,0,2013-02-23 14:55:00
9:15 AM,2.8,-0.4,86,29.85,7.0,Calm,Calm,-,N/A,,Clear,0,2013-02-23 15:15:00
9:35 AM,3.6,-0.0,85,29.85,10.0,Calm,Calm,-,N/A,,Clear,0,2013-02-23 15:35:00
9:55 AM,7.9,5.4,89,29.85,10.0,Calm,Calm,-,N/A,,Clear,0,2013-02-23 15:55:00
10:15 AM,11.3,9.1,91,29.84,10.0,Calm,Calm,-,N/A,,Clear,0,2013-02-23 16:15:00
10:35 AM,12.7,10.4,90,29.85,10.0,South,3.5,-,N/A,,Clear,180,2013-02-23 16:35:00
10:55 AM,13.3,11.1,91,29.85,10.0,South,3.5,-,N/A,,Clear,190,2013-02-23 16:55:00
11:15 AM,14.7,12.7,92,29.85,10.0,South,3.5,-,N/A,,Clear,170,2013-02-23 17:15:00
11:35 AM,17.6,16.0,93,29.84,10.0,SSW,4.6,-,N/A,,Clear,210,2013-02-23 17:35:00
11:55 AM,20.1,18.3,93,29.84,10.0,South,3.5,-,N/A,,Clear,170,2013-02-23 17:55:00
12:15 PM,20.8,18.3,90,29.83,10.0,SSE,5.8,-,N/A,,Clear,150,2013-02-23 18:15:00
12:35 PM,22.1,16.9,80,29.83,10.0,South,6.9,-,N/A,,Clear,170,2013-02-23 18:35:00
12:55 PM,23.5,17.1,76,29.82,10.0,South,8.1,-,N/A,,Clear,170,2013-02-23 18:55:00
1:15 PM,23.4,16.9,76,29.81,10.0,SSE,6.9,-,N/A,,Clear,150,2013-02-23 19:15:00
1:35 PM,24.3,17.6,76,29.81,10.0,SSE,9.2,-,N/A,,Clear,150,2013-02-23 19:35:00
1:55 PM,24.6,17.8,75,29.81,10.0,SSE,5.8,-,N/A,,Clear,160,2013-02-23 19:55:00
2:15 PM,25.5,19.0,76,29.81,7.0,SSE,5.8,-,N/A,,Clear,160,2013-02-23 20:15:00
2:35 PM,26.6,19.9,76,29.80,7.0,SSE,5.8,-,N/A,,Clear,160,2013-02-23 20:35:00
2:55 PM,28.0,21.2,76,29.79,10.0,SSE,5.8,-,N/A,,Clear,150,2013-02-23 20:55:00
3:15 PM,27.9,21.2,76,29.78,10.0,SSE,6.9,-,N/A,,Clear,150,2013-02-23 21:15:00
3:35 PM,28.4,22.1,77,29.77,7.0,SSE,8.1,-,N/A,,Clear,150,2013-02-23 21:35:00
3:55 PM,29.1,22.8,77,29.77,7.0,SE,5.8,-,N/A,,Clear,140,2013-02-23 21:55:00
4:15 PM,29.5,23.4,78,29.77,7.0,SSE,11.5,-,N/A,,Clear,160,2013-02-23 22:15:00
4:35 PM,29.7,23.5,78,29.77,7.0,South,8.1,-,N/A,,Clear,170,2013-02-23 22:35:00
4:55 PM,29.7,23.2,77,29.77,7.0,South,9.2,-,N/A,,Clear,180,2013-02-23 22:55:00
5:15 PM,28.4,22.6,79,29.77,7.0,South,4.6,-,N/A,,Clear,170,2013-02-23 23:15:00
5:35 PM,27.5,22.1,80,29.77,7.0,SSE,4.6,-,N/A,,Clear,150,2013-02-23 23:35:00
5:55 PM,23.5,18.7,82,29.78,7.0,SSE,5.8,-,N/A,,Clear,150,2013-02-23 23:55:00
6:15 PM,22.8,19.2,86,29.78,7.0,Calm,Calm,-,N/A,,Clear,0,2013-02-24 00:15:00
6:35 PM,20.3,16.9,87,29.79,7.0,Calm,Calm,-,N/A,,Clear,0,2013-02-24 00:35:00
6:55 PM,22.1,19.2,89,29.80,7.0,Calm,Calm,-,N/A,,Clear,0,2013-02-24 00:55:00
7:15 PM,20.1,17.6,90,29.80,7.0,Calm,Calm,-,N/A,,Clear,0,2013-02-24 01:15:00
7:35 PM,15.3,13.6,93,29.81,5.0,Calm,Calm,-,N/A,,Clear,0,2013-02-24 01:35:00
7:55 PM,13.8,12.4,94,29.81,3.0,Calm,Calm,-,N/A,,Clear,0,2013-02-24 01:55:00
8:15 PM,11.8,9.9,92,29.81,2.0,Calm,Calm,-,N/A,,Clear,0,2013-02-24 02:15:00
8:35 PM,11.5,9.5,92,29.82,1.5,Calm,Calm,-,N/A,,Mist,0,2013-02-24 02:35:00
9:15 PM,8.2,5.7,89,29.82,3.0,Calm,Calm,-,N/A,,Clear,0,2013-02-24 03:15:00
9:35 PM,9.9,7.7,91,29.83,0.8,Calm,Calm,-,N/A,,Mist,0,2013-02-24 03:35:00
10:15 PM,7.2,4.1,87,29.84,3.0,Calm,Calm,-,N/A,,Mostly Cloudy,0,2013-02-24 04:15:00
10:55 PM,4.1,0.9,86,29.85,3.0,Calm,Calm,-,N/A,,Clear,0,2013-02-24 04:55:00
11:15 PM,5.4,2.3,87,29.84,0.8,Calm,Calm,-,N/A,,Mist,0,2013-02-24 05:15:00
11:35 PM,5.4,2.5,88,29.84,1.8,Calm,Calm,-,N/A,,Mist,0,2013-02-24 05:35:00
11:55 PM,4.8,1.8,87,29.84,2.5,Calm,Calm,-,N/A,,Clear,0,2013-02-24 05:55:00